When you browse on this site, cookies collect data to enhance your experience and personalize the content and advertising you see.
Visit our Privacy Policy to learn more. By continuing to use the site, you agree to this use of cookies and data.
  • In Portugal
  • List of Countries
  • For 7 days
  • Water Temperature
  • Satellite Maps
  • Weather Map
  • Weather Widgets
  • user-avatar
    Login

    Hourly Weather Monino

    Today, 16 July, Tuesday

    Time Temperature Precipitation Wind Pressure Humidity
    00:00 +11°C° 0 mm 1 mps 742 mmHg 94%
    01:00 +11°C° 0 mm 1 mps 742 mmHg 94%
    02:00 +9°C° 0 mm 0 mps 742 mmHg 94%
    03:00 +11°C° 0 mm 1 mps 742 mmHg 93%
    04:00 +11°C° 0 mm 1 mps 742 mmHg 92%
    05:00 +12°C° 0 mm 1 mps 742 mmHg 92%
    06:00 +13°C° 0 mm 1 mps 742 mmHg 86%
    07:00 +15°C° 0 mm 1 mps 742 mmHg 80%
    08:00 +18°C° 0 mm 1 mps 742 mmHg 72%
    09:00 +19°C° 0.4 mm 1 mps 741 mmHg 71%
    10:00 +19°C° 0.4 mm 2 mps 741 mmHg 69%
    11:00 +19°C° 0.4 mm 2 mps 741 mmHg 68%
    12:00 +19°C° 0.7 mm 2 mps 741 mmHg 72%
    13:00 +18°C° 0.7 mm 3 mps 740 mmHg 77%
    14:00 +18°C° 0.7 mm 3 mps 740 mmHg 81%
    15:00 +17°C° 0.1 mm 3 mps 740 mmHg 80%
    16:00 +17°C° 0.1 mm 2 mps 740 mmHg 79%
    17:00 +17°C° 0.1 mm 2 mps 740 mmHg 78%
    18:00 +16°C° 0 mm 2 mps 739 mmHg 84%
    19:00 +15°C° 0 mm 1 mps 739 mmHg 90%
    20:00 +14°C° 0 mm 1 mps 739 mmHg 96%
    21:00 +13°C° 0 mm 1 mps 739 mmHg 97%
    22:00 +13°C° 0 mm 1 mps 739 mmHg 97%
    23:00 +12°C° 0 mm 1 mps 738 mmHg 98%

    Tomorrow, 17 July, Wednesday

    Time Temperature Precipitation Wind Pressure Humidity
    00:00 +12°C° 0 mm 1 mps 738 mmHg 98%
    01:00 +12°C° 0 mm 1 mps 738 mmHg 98%
    02:00 +12°C° 0 mm 1 mps 738 mmHg 98%
    03:00 +12°C° 0 mm 1 mps 738 mmHg 97%
    04:00 +13°C° 0 mm 1 mps 738 mmHg 97%
    05:00 +13°C° 0 mm 1 mps 738 mmHg 96%
    06:00 +14°C° 0 mm 1 mps 738 mmHg 92%
    07:00 +15°C° 0 mm 1 mps 737 mmHg 88%
    08:00 +16°C° 0 mm 1 mps 737 mmHg 84%
    09:00 +19°C° 0.1 mm 1 mps 737 mmHg 78%
    10:00 +20°C° 0.1 mm 1 mps 737 mmHg 73%
    11:00 +22°C° 0.1 mm 1 mps 737 mmHg 68%
    12:00 +22°C° 0.8 mm 1 mps 737 mmHg 70%
    13:00 +20°C° 0.8 mm 0 mps 737 mmHg 73%
    14:00 +20°C° 0.8 mm 0 mps 737 mmHg 75%
    15:00 +20°C° 0.9 mm 0 mps 737 mmHg 76%
    16:00 +19°C° 0.9 mm 0 mps 737 mmHg 78%
    17:00 +19°C° 0.9 mm 0 mps 736 mmHg 79%
    18:00 +18°C° 0.4 mm 0 mps 736 mmHg 82%
    19:00 +16°C° 0.4 mm 0 mps 736 mmHg 85%
    20:00 +15°C° 0.4 mm 0 mps 736 mmHg 89%
    21:00 +16°C° 0 mm 1 mps 736 mmHg 90%
    22:00 +15°C° 0 mm 1 mps 736 mmHg 91%
    23:00 +15°C° 0 mm 1 mps 736 mmHg 92%

    Day after tomorrow, 18 July, Thursday

    Time Temperature Precipitation Wind Pressure Humidity
    00:00 +15°C° 0 mm 1 mps 736 mmHg 93%
    01:00 +14°C° 0 mm 1 mps 736 mmHg 93%
    02:00 +13°C° 0 mm 0 mps 736 mmHg 93%
    03:00 +13°C° 0 mm 0 mps 736 mmHg 94%
    04:00 +13°C° 0 mm 0 mps 735 mmHg 94%
    05:00 +13°C° 0 mm 0 mps 735 mmHg 94%
    06:00 +15°C° 0.2 mm 1 mps 735 mmHg 91%
    07:00 +16°C° 0.2 mm 1 mps 735 mmHg 87%
    08:00 +18°C° 0.2 mm 1 mps 735 mmHg 84%
    09:00 +18°C° 0.5 mm 2 mps 735 mmHg 78%
    10:00 +20°C° 0.5 mm 2 mps 736 mmHg 72%
    11:00 +21°C° 0.5 mm 2 mps 736 mmHg 66%
    12:00 +20°C° 0.6 mm 2 mps 735 mmHg 69%
    13:00 +20°C° 0.6 mm 2 mps 735 mmHg 72%
    14:00 +20°C° 0.6 mm 3 mps 735 mmHg 75%
    15:00 +20°C° 0.8 mm 2 mps 735 mmHg 78%
    16:00 +19°C° 0.8 mm 2 mps 735 mmHg 81%
    17:00 +19°C° 0.8 mm 2 mps 735 mmHg 83%
    18:00 +17°C° 0.5 mm 2 mps 735 mmHg 87%
    19:00 +16°C° 0.5 mm 2 mps 735 mmHg 91%
    20:00 +15°C° 0.5 mm 2 mps 735 mmHg 95%
    21:00 +14°C° 0 mm 2 mps 735 mmHg 96%
    22:00 +14°C° 0 mm 2 mps 735 mmHg 97%
    23:00 +13°C° 0 mm 2 mps 736 mmHg 98%

    19 July, Friday

    Time Temperature Precipitation Wind Pressure Humidity
    00:00 +13°C° 0 mm 1 mps 736 mmHg 98%
    01:00 +13°C° 0 mm 1 mps 736 mmHg 98%
    02:00 +13°C° 0 mm 1 mps 736 mmHg 99%
    03:00 +13°C° 0.3 mm 1 mps 736 mmHg 99%
    04:00 +14°C° 0.3 mm 1 mps 736 mmHg 98%
    05:00 +13°C° 0.3 mm 0 mps 736 mmHg 98%
    06:00 +14°C° 0.2 mm 1 mps 736 mmHg 97%
    07:00 +15°C° 0.2 mm 1 mps 736 mmHg 95%
    08:00 +15°C° 0.2 mm 1 mps 737 mmHg 94%
    09:00 +16°C° 0.1 mm 2 mps 737 mmHg 92%
    10:00 +16°C° 0.1 mm 2 mps 737 mmHg 89%
    11:00 +17°C° 0.1 mm 3 mps 738 mmHg 87%
    12:00 +17°C° 0 mm 3 mps 738 mmHg 83%
    13:00 +18°C° 0 mm 3 mps 738 mmHg 80%
    14:00 +18°C° 0 mm 3 mps 738 mmHg 77%
    15:00 +18°C° 0.1 mm 3 mps 738 mmHg 78%
    16:00 +18°C° 0.1 mm 3 mps 738 mmHg 80%
    17:00 +18°C° 0.1 mm 3 mps 738 mmHg 81%
    18:00 +17°C° 0.4 mm 3 mps 738 mmHg 86%
    19:00 +16°C° 0.4 mm 3 mps 739 mmHg 90%
    20:00 +14°C° 0.4 mm 3 mps 739 mmHg 95%
    21:00 +14°C° 0.4 mm 3 mps 739 mmHg 96%
    22:00 +14°C° 0.4 mm 3 mps 739 mmHg 97%
    23:00 +13°C° 0.4 mm 3 mps 740 mmHg 98%

    20 July, Saturday

    Time Temperature Precipitation Wind Pressure Humidity
    00:00 +14°C° 0 mm 3 mps 740 mmHg 97%
    01:00 +14°C° 0 mm 4 mps 740 mmHg 97%
    02:00 +14°C° 0 mm 4 mps 740 mmHg 96%
    03:00 +14°C° 0 mm 4 mps 740 mmHg 96%
    04:00 +14°C° 0 mm 3 mps 740 mmHg 96%
    05:00 +13°C° 0 mm 3 mps 741 mmHg 96%
    06:00 +13°C° 0.4 mm 3 mps 741 mmHg 96%
    07:00 +14°C° 0.4 mm 3 mps 741 mmHg 95%
    08:00 +14°C° 0.4 mm 3 mps 741 mmHg 95%
    09:00 +14°C° 0.2 mm 3 mps 742 mmHg 95%
    10:00 +14°C° 0.2 mm 3 mps 742 mmHg 95%
    11:00 +16°C° 0.2 mm 3 mps 742 mmHg 94%
    12:00 +17°C° 0.2 mm 3 mps 743 mmHg 88%
    13:00 +18°C° 0.2 mm 4 mps 743 mmHg 81%
    14:00 +20°C° 0.2 mm 4 mps 743 mmHg 74%
    15:00 +20°C° 0.1 mm 4 mps 743 mmHg 74%
    16:00 +20°C° 0.1 mm 3 mps 743 mmHg 73%
    17:00 +20°C° 0.1 mm 3 mps 744 mmHg 73%
    18:00 +19°C° 0.2 mm 3 mps 744 mmHg 80%
    19:00 +18°C° 0.2 mm 2 mps 744 mmHg 88%
    20:00 +16°C° 0.2 mm 2 mps 744 mmHg 96%
    21:00 +16°C° 0 mm 2 mps 744 mmHg 97%
    22:00 +15°C° 0 mm 2 mps 744 mmHg 98%
    23:00 +14°C° 0 mm 2 mps 745 mmHg 98%

    21 July, Sunday

    Time Temperature Precipitation Wind Pressure Humidity
    00:00 +14°C° 0 mm 2 mps 745 mmHg 98%
    01:00 +14°C° 0 mm 2 mps 745 mmHg 98%
    02:00 +14°C° 0 mm 2 mps 745 mmHg 98%
    03:00 +14°C° 0 mm 2 mps 745 mmHg 98%
    04:00 +14°C° 0 mm 2 mps 745 mmHg 98%
    05:00 +14°C° 0 mm 2 mps 746 mmHg 99%
    06:00 +15°C° 0 mm 2 mps 746 mmHg 94%
    07:00 +17°C° 0 mm 2 mps 746 mmHg 90%
    08:00 +18°C° 0 mm 2 mps 746 mmHg 86%
    09:00 +20°C° 0.2 mm 2 mps 746 mmHg 80%
    10:00 +21°C° 0.2 mm 2 mps 746 mmHg 74%
    11:00 +23°C° 0.2 mm 2 mps 747 mmHg 68%
    12:00 +23°C° 1.3 mm 2 mps 746 mmHg 72%
    13:00 +23°C° 1.3 mm 2 mps 746 mmHg 76%
    14:00 +23°C° 1.3 mm 2 mps 746 mmHg 80%
    15:00 +23°C° 0.8 mm 2 mps 746 mmHg 80%
    16:00 +23°C° 0.8 mm 2 mps 746 mmHg 81%
    17:00 +21°C° 0.8 mm 2 mps 746 mmHg 81%
    18:00 +20°C° 0.2 mm 2 mps 747 mmHg 86%
    19:00 +19°C° 0.2 mm 2 mps 747 mmHg 90%
    20:00 +18°C° 0.2 mm 1 mps 747 mmHg 94%
    21:00 +18°C° 0 mm 1 mps 747 mmHg 95%
    22:00 +16°C° 0 mm 1 mps 747 mmHg 95%
    23:00 +15°C° 0 mm 1 mps 747 mmHg 96%
    Show more